| time (UTC) | temp F | wind direction | speed knots | gust knots | rain 1hr in | rain 24hr in | rain mn in | humidity % | barometer mb |
| 20260505004552 | 54 | 0 | 0.0 | 0.0 | 0.00 | 0.07 | 0.07 | 62 | 1012.1 |
| 20260505003051 | 56 | 0 | 0.0 | 0.0 | 0.00 | 0.07 | 0.07 | 56 | 1012.1 |
| 20260505001555 | 57 | 0 | 0.0 | 0.0 | 0.00 | 0.07 | 0.07 | 57 | 1011.9 |
| 20260505000113 | 56 | 0 | 0.0 | 0.0 | 0.01 | 0.07 | 0.07 | 52 | 1011.7 |
| 20260504234552 | 55 | 0 | 0.0 | 0.0 | 0.01 | 0.07 | 0.07 | 57 | 1011.8 |
| 20260504233100 | 55 | 0 | 0.0 | 0.0 | 0.01 | 0.07 | 0.07 | 59 | 1011.8 |
| 20260504231554 | 54 | 0 | 0.0 | 0.0 | 0.01 | 0.07 | 0.07 | 65 | 1011.5 |
| 20260504230056 | 54 | 0 | 0.0 | 0.0 | 0.00 | 0.06 | 0.06 | 66 | 1011.6 |
| 20260504224556 | 57 | 0 | 0.0 | 0.0 | 0.01 | 0.06 | 0.06 | 50 | 1011.8 |
| 20260504223103 | 58 | 0 | 0.0 | 0.0 | 0.02 | 0.06 | 0.06 | 46 | 1011.6 |
| 20260504221606 | 58 | 0 | 0.0 | 0.0 | 0.03 | 0.06 | 0.06 | 49 | 1011.2 |
| 20260504220122 | 58 | 0 | 0.0 | 0.0 | 0.04 | 0.06 | 0.06 | 51 | 1010.4 |
| 20260504214551 | 58 | 0 | 0.0 | 0.0 | 0.04 | 0.05 | 0.05 | 51 | 1009.8 |
| 20260504213113 | 58 | 0 | 0.0 | 0.0 | 0.04 | 0.04 | 0.04 | 52 | 1010.7 |
| 20260504211550 | 56 | 0 | 0.0 | 0.0 | 0.03 | 0.03 | 0.03 | 55 | 1011.2 |
| 20260504210059 | 55 | 0 | 0.0 | 0.0 | 0.02 | 0.02 | 0.02 | 57 | 1011.6 |
| 20260504204606 | 56 | 0 | 0.0 | 14.8 | 0.01 | 0.22 | 0.01 | 53 | 1011.6 |
| 20260504203052 | 60 | 0 | 12.2 | 24.3 | 0.00 | 0.21 | 0.00 | 40 | 1011.2 |
| 20260504201548 | 67 | 12 | 5.2 | 12.2 | 0.00 | 0.21 | 0.00 | 25 | 1009.8 |
| 20260504200057 | 68 | 14 | 1.7 | 13.0 | 0.00 | 0.21 | 0.00 | 25 | 1009.6 |
| 20260504194552 | 69 | 360 | 2.6 | 19.1 | 0.00 | 0.51 | 0.00 | 26 | 1009.5 |
| 20260504193051 | 69 | 0 | 0.0 | 0.0 | 0.00 | 0.51 | 0.00 | 26 | 1009.5 |
| 20260504191555 | 70 | 0 | 0.0 | 0.0 | 0.00 | 0.51 | 0.00 | 23 | 1009.6 |
| 20260504190054 | 69 | 360 | 13.9 | 19.1 | 0.00 | 0.51 | 0.00 | 25 | 1009.8 |
| 20260504184558 | 70 | 360 | 9.6 | 14.8 | 0.00 | 0.56 | 0.00 | 24 | 1009.9 |
| 20260504183059 | 68 | 360 | 10.4 | 15.6 | 0.00 | 0.56 | 0.00 | 25 | 1010.1 |
| 20260504181556 | 68 | 360 | 8.7 | 16.5 | 0.00 | 0.56 | 0.00 | 25 | 1010.3 |
| 20260504180050 | 67 | 360 | 7.8 | 16.5 | 0.00 | 0.56 | 0.00 | 26 | 1010.6 |
| 20260504174554 | 67 | 360 | 6.1 | 15.6 | 0.00 | 0.58 | 0.00 | 28 | 1011.1 |
| 20260504173050 | 66 | 209 | 6.1 | 17.4 | 0.00 | 0.58 | 0.00 | 28 | 1011.3 |
| 20260504171557 | 65 | 360 | 7.8 | 17.4 | 0.00 | 0.58 | 0.00 | 29 | 1011.4 |
| 20260504081552 | 57 | 360 | 0.0 | 0.0 | 0.00 | 0.58 | 0.00 | 29 | 1012.5 |
| 20260504044558 | 0 | 0.0 | 0.0 | 0.00 | 0.58 | 0.58 | 1013.4 | ||
| 20260504043100 | 0 | 0.0 | 0.0 | 0.00 | 0.58 | 0.58 | 1013.0 | ||
| 20260504041554 | 0 | 0.0 | 0.0 | 0.00 | 0.58 | 0.58 | 1013.0 | ||
| 20260504040057 | 0 | 0.0 | 0.0 | 0.00 | 0.58 | 0.58 | 1013.2 | ||
| 20260504034554 | 0 | 0.0 | 0.0 | 0.00 | 0.58 | 0.58 | 1013.3 | ||
| 20260504033056 | 0 | 0.0 | 0.0 | 0.00 | 0.58 | 0.58 | 1013.4 | ||
| 20260504031602 | 0 | 0.0 | 0.0 | 0.00 | 0.58 | 0.58 | 1013.3 | ||
| 20260504030056 | 0 | 0.0 | 0.0 | 0.00 | 0.58 | 0.58 | 1013.3 | ||
| 20260504024549 | 0 | 0.0 | 0.0 | 0.00 | 0.58 | 0.58 | 1013.3 | ||
| 20260504023049 | 0 | 0.0 | 0.0 | 0.00 | 0.58 | 0.58 | 1013.1 | ||
| 20260504021548 | 0 | 0.0 | 0.0 | 0.00 | 0.58 | 0.58 | 1013.0 | ||
| 20260504020126 | 0 | 0.0 | 0.0 | 0.00 | 0.58 | 0.58 | 1012.9 | ||
| 20260504014603 | 0 | 0.0 | 0.0 | 0.00 | 0.58 | 0.58 | 1012.9 | ||
| 20260504013103 | 66 | 0.0 | 0.0 | 0.00 | 0.58 | 0.58 | 22 | 1012.7 | |
| 20260504011549 | 67 | 0 | 0.0 | 0.0 | 0.00 | 0.58 | 0.58 | 22 | 1012.8 |
| 20260504010053 | 67 | 0 | 0.0 | 0.0 | 0.00 | 0.58 | 0.58 | 23 | 1013.0 |